SCP
0 0 0 0 0 0 0 0 0 0 0 0 0 0 0 0 0 0 0 0 0 0 0 0 0 -0 -0 0 -0 0 -0 0 0 0 0 0 0 0 0 0 0 0 0 0
0 0 0 0 0 0 0 -0 0 0 0 0 0 0 0 0 0 0 0 0 0 0 0 0 -0 -0 0 0 0 0 0 0 0 0 0 0 0 0 0 0 0 0 0 0
0 0 0 0 0 0 0 0 0 0 0 0 0 0 0 0 0 0 0 0 0 0 0 0 0 0 0 0 0 0 0 0 0 0 0 0 0 0 0 0 0 0 0 1
0 0 0 0 0 0 0 0 0 0 0 0 0 0 0 0 0 0 0 0 0 0 0 0 0 0 0 -0 -0 -0 0 0 0 0 0 0 0 0 0 0 0 0 0 0
0 0 0 0 0 0 0 0 0 0 0 0 0 -0 0 0 -0 0 0 0 -0 0 0 0 0 0 0 0 -0 -0 0 -0 0 0 0 0 0 0 0 0 0 0 0 0
0 0 0 0 0 0 0 0 0 0 0 0 0 0 0 -0 -0 0 0 -0 0 -0 -0 -0 -0 0 0 -0 -0 -0 -0 0 0 0 0 0 0 0 0 0 0 0 1 0
0 0 0 0 0 0 0 0 0 0 0 0 0 0 -0 0 -0 -0 -0 0 0 -0 -0 -0 0 -0 -0 -0 -0 -0 0 0 0 0 0 0 0 0 0 0 0 0 0 -0
0 0 0 0 0 0 0 0 0 0 0 0 0 0 0 0 0 -0 0 0 0 -0 0 -0 0 0 0 0 0 0 0 0 0 0 0 0 0 0 0 0 0 0 -0 0
0 0 0 0 0 0 0 0 0 0 0 0 0 0 -0 0 -0 -0 -0 -0 -0 -0 0 0 0 0 0 0 0 -0 0 0 0 0 0 0 0 0 0 0 0 0 -0 -0
0 0 0 0 0 0 0 0 0 0 0 0 -0 0 0 0 0 -0 0 -0 -0 -0 0 0 0 0 0 0 0 -0 0 1 -0 0 1 0 0 0 0 0 0 0 0 0
0 0 0 0 0 0 0 0 0 0 0 0 0 0 0 0 -0 0 -0 -0 -0 -0 0 -0 -0 0 0 0 0 0 0 0 0 0 0 0 1 0 0 1 1 1 -0 0
0 0 0 0 0 0 0 0 0 0 0 0 0 0 0 0 -0 -0 -0 -0 0 0 -0 0 0 0 -0 0 0 0 0 0 0 0 0 0 1 1 2 3 1 1 0 -0
0 0 0 0 0 0 0 0 0 0 0 0 0 0 0 0 0 0 -0 -0 -0 0 -0 0 0 0 0 0 0 0 0 0 0 0 0 0 0 1 0 1 0 0 0 0
0 0 0 0 0 0 0 0 0 0 0 0 0 0 0 0 0 -0 0 0 0 -0 -0 0 0 0 0 0 0 0 0 0 0 0 0 0 0 0 0 0 0 -0 0 0
0 0 0 0 0 0 0 0 0 0 0 0 0 0 0 0 0 -0 0 0 -0 -0 -0 0 0 0 0 0 0 0 0 0 0 0 0 0 0 0 0 0 0 0 0 0
0 0 0 0 0 0 0 0 0 0 0 0 0 0 0 0 0 0 -0 0 0 -0 -0 -0 0 0 0 0 0 0 0 0 0 0 0 0 0 0 0 0 0 0 0 0
0 0 0 0 0 0 0 0 0 0 0 0 0 0 0 0 0 0 -0 0 -0 -0 -0 -0 -0 0 0 0 0 0 0 0 0 0 0 0 0 0 0 0 0 0 0 0
0 0 0 0 0 0 0 0 0 0 0 0 0 0 0 0 0 0 0 0 0 -0 -0 -0 -0 0 0 0 0 0 0 0 0 0 0 0 0 0 0 0 0 0 0 0
0 0 0 0 0 0 0 0 0 0 0 0 0 0 0 0 0 0 0 -0 0 -0 -0 -0 -0 0 0 0 0 0 0 0 0 0 0 0 0 0 0 0 0 0 0 0
0 0 0 0 0 0 0 0 0 0 0 0 0 -0 0 0 0 0 0 0 0 -0 -0 -0 -0 0 0 0 0 0 0 0 0 0 0 0 0 0 0 0 0 0 0 0
0 0 0 0 0 0 0 0 0 0 0 0 0 0 0 0 0 0 0 0 0 0 0 -0 -0 0 0 0 0 0 0 0 0 0 0 0 0 0 0 0 0 0 0 0
0 0 0 0 0 0 0 0 0 0 0 0 0 0 0 0 0 0 0 0 0 0 0 0 -0 -0 -0 -0 0 0 0 0 0 0 0 0 0 0 0 0 0 0 0 0
0 0 0 0 0 0 0 0 0 0 0 0 0 0 0 0 0 0 0 0 0 0 0 0 0 0 0 0 0 0 0 0 0 0 -0 0 0 0 0 0 0 0 0 0
0 0 0 0 0 0 0 0 0 0 -0 0 0 0 0 0 0 0 0 0 0 0 0 0 0 0 0 0 0 0 0 0 0 0 0 0 0 0 0 0 0 0 0 0
0 0 0 0 0 0 0 0 0 0 0 0 0 0 0 0 0 0 0 0 0 0 0 0 0 0 0 0 0 0 0 0 0 0 0 0 0 0 0 0 0 0 0 0
0 0 0 0 0 0 0 0 0 0 0 0 0 0 0 0 0 0 0 0 0 0 0 0 0 0 0 0 0 0 0 0 0 0 0 0 0 0 0 0 0 0 0 0
0 0 0 0 0 0 0 0 0 0 0 0 0 0 0 0 0 0 0 0 0 0 0 0 -0 -0 0 0 0 0 0 0 0 0 0 0 -0 0 0 0 0 0 0 0
Wind_Speed_500mb
73 75 77 79 74 73 45 27 10 22 34 25 27 13 28 33 31 27 7 7 9 10 31 13 13 14 19 35 36 28 10 1 18 46 37 42 48 40 37 13 15 21 21 11
73 73 74 74 72 59 67 35 22 21 28 12 20 24 28 39 31 24 2 7 11 20 18 11 18 16 19 36 20 15 12 9 16 26 28 41 44 34 36 20 12 11 18 22
73 70 71 71 69 48 53 23 14 24 32 26 30 29 30 41 29 15 21 12 19 10 10 9 10 19 28 25 24 30 9 4 9 27 39 40 38 35 38 11 10 25 32 42
72 68 68 69 70 42 41 30 14 21 14 26 30 31 39 45 29 13 23 10 30 20 5 8 3 8 22 22 20 10 6 7 36 27 42 44 34 46 33 36 39 27 46 48
69 67 65 65 67 58 26 22 21 32 43 38 34 34 38 41 46 12 24 17 35 19 12 4 16 19 12 10 14 12 7 9 21 37 39 41 44 47 33 24 13 47 42 44
66 65 62 61 61 56 22 29 28 22 31 28 27 31 41 37 36 17 19 22 18 16 24 46 41 17 12 7 8 4 5 12 25 35 40 38 36 41 21 8 4 38 40 33
62 62 57 54 54 50 24 31 32 26 17 24 28 45 46 44 32 29 23 46 8 20 41 37 17 10 10 15 29 18 16 32 11 23 24 29 32 35 24 18 16 48 53 47
58 58 55 50 47 44 36 26 26 18 19 39 28 47 37 53 54 40 28 61 30 30 25 6 11 3 6 10 14 22 11 6 7 14 24 25 43 33 22 18 36 29 48 45
54 52 54 48 44 41 38 21 15 21 24 14 43 48 46 33 35 33 56 71 42 36 5 8 9 2 4 7 13 25 13 21 14 26 24 26 26 42 29 12 26 36 52 44
55 50 49 47 44 38 35 18 26 18 20 28 47 28 33 40 40 25 35 67 37 40 14 3 8 7 14 1 15 13 9 14 23 19 6 13 10 14 42 26 11 62 39 61
53 48 46 45 42 39 33 23 21 23 26 55 20 31 37 38 38 21 50 24 28 16 17 9 9 5 6 8 19 9 11 13 13 9 9 10 25 7 16 7 50 81 87 61
53 45 40 42 39 38 36 18 23 30 29 41 54 40 32 34 33 31 40 15 33 14 6 6 8 7 4 6 5 9 7 11 5 7 8 29 9 14 13 12 22 59 70 70
48 40 38 42 38 36 36 38 21 30 36 57 33 21 15 21 25 21 21 23 21 21 10 8 5 6 12 10 9 5 16 29 7 5 17 28 39 25 37 48 55 68 64 64
45 36 38 40 39 34 36 38 21 22 25 16 32 32 19 21 22 21 13 15 16 8 12 6 5 6 20 9 6 11 14 24 6 16 12 28 57 34 38 59 59 54 54 55
48 36 34 40 38 34 35 38 19 16 11 14 36 49 13 17 20 17 10 10 5 12 8 6 5 10 10 6 7 9 23 10 8 7 24 34 27 39 41 54 55 59 70 67
42 34 32 36 35 31 28 7 12 13 13 13 11 28 15 11 17 13 14 8 12 11 8 5 6 8 15 4 5 17 32 41 27 22 36 38 39 56 61 63 59 58 59 55
39 31 32 35 32 29 14 7 14 25 4 10 15 13 10 10 27 5 10 10 9 11 9 4 6 14 13 6 5 19 25 38 21 22 28 37 37 34 54 70 69 65 56 52
34 29 30 32 30 32 29 15 26 23 13 13 8 11 10 5 18 10 9 2 17 7 7 6 7 8 10 6 13 13 19 33 46 37 38 38 37 41 48 54 56 56 48 43
19 26 26 27 14 8 9 14 11 13 15 12 13 21 9 9 20 18 7 10 4 12 8 7 7 6 10 6 14 26 27 25 24 35 38 39 45 43 44 50 50 59 53 45
11 11 3 10 4 6 15 10 10 17 14 21 21 37 18 12 17 9 10 13 5 2 7 14 6 5 7 15 12 31 31 33 31 35 34 32 36 35 38 39 40 39 34 32
0 6 5 6 10 5 10 13 15 21 11 17 22 35 11 12 9 13 9 4 5 6 8 6 6 4 6 16 22 24 21 27 28 27 29 32 33 30 31 27 21 19 22 22
4 10 20 15 7 16 11 9 10 12 10 4 5 9 8 14 8 10 6 6 6 1 25 8 9 11 27 23 20 21 22 21 22 22 24 23 24 18 20 18 16 18 17 12
7 5 9 12 13 1 13 11 9 10 7 15 5 2 4 7 8 10 6 6 5 23 6 5 7 36 37 31 24 22 22 21 21 22 22 21 20 16 14 14 13 12 10 7
5 9 8 10 11 12 16 18 5 7 28 5 2 5 2 7 5 8 6 8 5 5 9 6 18 43 37 36 32 26 20 19 18 17 16 16 16 16 15 13 11 9 11 2
9 11 8 16 26 10 16 13 14 15 4 9 3 3 9 6 9 7 6 5 4 8 6 12 42 44 41 36 34 29 24 18 14 13 12 12 11 11 13 12 10 9 3 6
10 15 14 26 19 19 19 20 11 5 4 5 3 3 6 10 6 6 4 5 7 5 8 45 51 45 40 37 32 28 23 18 15 13 11 9 8 8 11 5 4 4 4 5
10 16 32 33 23 17 10 24 8 14 11 6 5 7 8 5 4 5 5 3 9 19 34 43 48 46 40 35 31 28 24 19 16 13 12 10 8 9 10 7 6 6 7 9
Wind_Direction_500mb
1 1 3 4 3 1 15 337 15 358 1 16 359 330 330 336 334 344 199 273 261 281 321 356 198 230 215 187 186 206 135 147 167 199 221 215 210 201 207 208 258 170 185 131
1 1 4 6 9 0 352 326 13 22 9 10 346 344 340 352 351 348 335 274 236 289 306 312 122 210 208 174 210 142 180 126 163 208 247 236 211 193 214 244 272 153 113 142
360 0 2 6 10 15 359 322 4 355 348 4 349 327 353 350 4 333 331 289 286 290 310 305 341 85 143 191 84 70 46 50 225 173 189 201 201 194 213 189 259 154 163 122
357 358 1 4 9 19 15 10 13 2 309 330 318 345 356 346 355 335 347 308 332 333 316 287 233 157 128 103 141 84 60 211 223 186 172 183 192 193 187 214 227 176 146 139
355 356 358 2 6 17 29 10 4 329 298 312 1 357 352 358 352 347 328 329 332 333 349 324 321 153 181 188 171 138 137 256 231 173 181 188 194 201 199 222 223 139 168 124
352 354 355 358 5 15 15 3 346 331 296 338 356 351 344 4 355 343 328 11 342 343 347 322 314 36 72 46 328 199 183 243 165 174 187 204 203 189 190 219 274 154 122 129
349 350 352 354 0 7 353 338 346 324 317 335 339 349 348 343 3 351 352 6 10 329 325 315 272 294 319 266 165 151 227 227 194 156 184 191 211 191 177 120 33 120 132 139
344 345 347 349 353 357 2 343 348 340 307 316 343 343 355 341 360 346 16 6 343 320 330 321 273 328 307 190 165 146 77 360 93 170 182 185 212 173 188 139 129 160 130 133
337 341 342 344 346 352 350 336 322 330 315 343 331 326 356 340 350 345 352 1 1 355 91 6 312 262 252 132 123 131 339 257 251 170 167 171 185 171 191 161 141 151 133 142
333 336 338 338 338 346 350 332 317 322 299 291 325 323 336 336 346 341 343 341 357 7 347 178 252 24 328 95 128 155 250 199 161 107 95 151 348 162 197 206 129 131 133 138
329 329 330 332 332 335 344 333 307 312 295 296 274 313 318 330 335 343 331 335 3 3 10 348 329 321 54 28 56 32 10 312 69 59 48 217 347 301 193 40 133 136 143 153
320 319 323 326 328 326 329 323 296 305 282 278 308 286 288 275 299 331 331 358 11 14 335 342 306 319 87 306 53 13 73 44 66 68 149 228 303 34 32 336 111 132 122 130
312 313 318 322 323 319 317 316 318 319 297 303 300 254 282 304 305 314 316 337 4 359 340 304 296 334 344 13 33 76 35 34 62 268 46 35 19 54 71 96 73 107 120 128
307 311 314 318 317 312 309 307 293 295 298 282 305 331 307 306 319 325 317 327 342 11 21 3 322 339 358 13 32 46 355 313 73 82 93 53 11 17 99 115 137 120 117 126
304 308 310 313 310 309 310 300 271 258 273 306 301 314 306 291 320 309 310 299 21 30 30 15 8 335 346 338 49 33 344 332 335 59 63 80 17 43 115 116 117 119 123 127
297 301 301 304 305 311 327 320 212 225 259 312 305 330 293 283 326 299 304 55 34 80 76 22 350 348 337 51 59 356 353 3 81 93 86 80 56 62 87 100 113 115 119 121
297 292 296 299 295 291 250 275 185 177 275 273 289 280 236 308 313 247 279 160 82 50 93 65 56 6 21 27 47 3 13 32 79 104 97 61 63 64 81 98 101 108 112 114
295 289 291 290 287 284 282 263 233 239 258 245 264 263 294 348 327 308 247 300 110 36 88 71 58 35 29 53 356 67 58 51 62 73 90 99 95 99 92 101 104 100 97 107
286 293 294 288 260 245 206 230 227 242 238 286 247 273 306 276 321 327 346 268 81 150 82 49 75 25 38 9 51 59 69 75 72 86 96 96 94 99 109 109 103 104 104 111
309 320 278 239 169 220 299 258 195 200 222 232 264 278 270 330 342 325 354 273 107 129 95 103 58 64 348 48 129 104 97 88 86 68 83 96 92 89 92 96 105 107 108 119
264 243 238 307 297 270 234 229 202 191 221 218 234 238 322 313 329 324 267 269 272 156 157 122 127 115 94 79 60 74 129 96 89 92 96 88 88 92 94 93 84 93 126 126
218 273 281 282 224 223 236 237 225 220 242 211 269 69 308 314 338 264 291 240 281 109 153 139 131 142 150 142 120 107 109 106 108 112 111 103 101 96 99 101 111 116 103 96
265 273 248 214 231 169 223 214 252 206 241 181 153 19 324 287 276 268 280 293 254 148 201 104 111 153 152 142 132 127 126 120 114 111 110 112 112 115 115 111 98 101 102 97
234 229 242 233 209 226 222 243 6 258 308 281 98 330 34 284 277 250 259 255 216 226 176 108 143 156 154 148 145 139 122 118 115 107 105 106 107 98 92 86 81 110 116 204
243 249 242 227 250 259 252 266 241 177 291 324 26 300 241 269 257 265 289 275 239 27 86 133 147 152 152 151 146 142 138 127 114 102 98 95 100 101 87 72 76 87 154 276
236 234 262 262 277 265 272 236 262 309 56 305 296 301 249 224 238 248 243 340 27 71 125 135 145 152 152 146 145 144 138 131 119 105 97 94 95 119 100 82 68 9 13 57
225 244 242 253 267 280 289 278 245 239 213 199 218 245 232 291 231 201 33 79 108 122 132 147 153 155 152 150 147 145 141 132 120 107 97 91 96 133 124 94 105 73 90 105
Wind_Speed_850mb
73 75 77 79 74 73 45 27 10 22 34 25 27 13 28 33 31 27 7 7 9 10 31 13 13 14 19 35 36 28 10 1 18 46 37 42 48 40 37 13 15 21 21 11
73 73 74 74 72 59 67 35 22 21 28 12 20 24 28 39 31 24 2 7 11 20 18 11 18 16 19 36 20 15 12 9 16 26 28 41 44 34 36 20 12 11 18 22
73 70 71 71 69 48 53 23 14 24 32 26 30 29 30 41 29 15 21 12 19 10 10 9 10 19 28 25 24 30 9 4 9 27 39 40 38 35 38 11 10 25 32 42
72 68 68 69 70 42 41 30 14 21 14 26 30 31 39 45 29 13 23 10 30 20 5 8 3 8 22 22 20 10 6 7 36 27 42 44 34 46 33 36 39 27 46 48
69 67 65 65 67 58 26 22 21 32 43 38 34 34 38 41 46 12 24 17 35 19 12 4 16 19 12 10 14 12 7 9 21 37 39 41 44 47 33 24 13 47 42 44
66 65 62 61 61 56 22 29 28 22 31 28 27 31 41 37 36 17 19 22 18 16 24 46 41 17 12 7 8 4 5 12 25 35 40 38 36 41 21 8 4 38 40 33
62 62 57 54 54 50 24 31 32 26 17 24 28 45 46 44 32 29 23 46 8 20 41 37 17 10 10 15 29 18 16 32 11 23 24 29 32 35 24 18 16 48 53 47
58 58 55 50 47 44 36 26 26 18 19 39 28 47 37 53 54 40 28 61 30 30 25 6 11 3 6 10 14 22 11 6 7 14 24 25 43 33 22 18 36 29 48 45
54 52 54 48 44 41 38 21 15 21 24 14 43 48 46 33 35 33 56 71 42 36 5 8 9 2 4 7 13 25 13 21 14 26 24 26 26 42 29 12 26 36 52 44
55 50 49 47 44 38 35 18 26 18 20 28 47 28 33 40 40 25 35 67 37 40 14 3 8 7 14 1 15 13 9 14 23 19 6 13 10 14 42 26 11 62 39 61
53 48 46 45 42 39 33 23 21 23 26 55 20 31 37 38 38 21 50 24 28 16 17 9 9 5 6 8 19 9 11 13 13 9 9 10 25 7 16 7 50 81 87 61
53 45 40 42 39 38 36 18 23 30 29 41 54 40 32 34 33 31 40 15 33 14 6 6 8 7 4 6 5 9 7 11 5 7 8 29 9 14 13 12 22 59 70 70
48 40 38 42 38 36 36 38 21 30 36 57 33 21 15 21 25 21 21 23 21 21 10 8 5 6 12 10 9 5 16 29 7 5 17 28 39 25 37 48 55 68 64 64
45 36 38 40 39 34 36 38 21 22 25 16 32 32 19 21 22 21 13 15 16 8 12 6 5 6 20 9 6 11 14 24 6 16 12 28 57 34 38 59 59 54 54 55
48 36 34 40 38 34 35 38 19 16 11 14 36 49 13 17 20 17 10 10 5 12 8 6 5 10 10 6 7 9 23 10 8 7 24 34 27 39 41 54 55 59 70 67
42 34 32 36 35 31 28 7 12 13 13 13 11 28 15 11 17 13 14 8 12 11 8 5 6 8 15 4 5 17 32 41 27 22 36 38 39 56 61 63 59 58 59 55
39 31 32 35 32 29 14 7 14 25 4 10 15 13 10 10 27 5 10 10 9 11 9 4 6 14 13 6 5 19 25 38 21 22 28 37 37 34 54 70 69 65 56 52
34 29 30 32 30 32 29 15 26 23 13 13 8 11 10 5 18 10 9 2 17 7 7 6 7 8 10 6 13 13 19 33 46 37 38 38 37 41 48 54 56 56 48 43
19 26 26 27 14 8 9 14 11 13 15 12 13 21 9 9 20 18 7 10 4 12 8 7 7 6 10 6 14 26 27 25 24 35 38 39 45 43 44 50 50 59 53 45
11 11 3 10 4 6 15 10 10 17 14 21 21 37 18 12 17 9 10 13 5 2 7 14 6 5 7 15 12 31 31 33 31 35 34 32 36 35 38 39 40 39 34 32
0 6 5 6 10 5 10 13 15 21 11 17 22 35 11 12 9 13 9 4 5 6 8 6 6 4 6 16 22 24 21 27 28 27 29 32 33 30 31 27 21 19 22 22
4 10 20 15 7 16 11 9 10 12 10 4 5 9 8 14 8 10 6 6 6 1 25 8 9 11 27 23 20 21 22 21 22 22 24 23 24 18 20 18 16 18 17 12
7 5 9 12 13 1 13 11 9 10 7 15 5 2 4 7 8 10 6 6 5 23 6 5 7 36 37 31 24 22 22 21 21 22 22 21 20 16 14 14 13 12 10 7
5 9 8 10 11 12 16 18 5 7 28 5 2 5 2 7 5 8 6 8 5 5 9 6 18 43 37 36 32 26 20 19 18 17 16 16 16 16 15 13 11 9 11 2
9 11 8 16 26 10 16 13 14 15 4 9 3 3 9 6 9 7 6 5 4 8 6 12 42 44 41 36 34 29 24 18 14 13 12 12 11 11 13 12 10 9 3 6
10 15 14 26 19 19 19 20 11 5 4 5 3 3 6 10 6 6 4 5 7 5 8 45 51 45 40 37 32 28 23 18 15 13 11 9 8 8 11 5 4 4 4 5
10 16 32 33 23 17 10 24 8 14 11 6 5 7 8 5 4 5 5 3 9 19 34 43 48 46 40 35 31 28 24 19 16 13 12 10 8 9 10 7 6 6 7 9
Wind_Direction_850mb
1 1 3 4 3 1 15 337 15 358 1 16 359 330 330 336 334 344 199 273 261 281 321 356 198 230 215 187 186 206 135 147 167 199 221 215 210 201 207 208 258 170 185 131
1 1 4 6 9 0 352 326 13 22 9 10 346 344 340 352 351 348 335 274 236 289 306 312 122 210 208 174 210 142 180 126 163 208 247 236 211 193 214 244 272 153 113 142
360 0 2 6 10 15 359 322 4 355 348 4 349 327 353 350 4 333 331 289 286 290 310 305 341 85 143 191 84 70 46 50 225 173 189 201 201 194 213 189 259 154 163 122
357 358 1 4 9 19 15 10 13 2 309 330 318 345 356 346 355 335 347 308 332 333 316 287 233 157 128 103 141 84 60 211 223 186 172 183 192 193 187 214 227 176 146 139
355 356 358 2 6 17 29 10 4 329 298 312 1 357 352 358 352 347 328 329 332 333 349 324 321 153 181 188 171 138 137 256 231 173 181 188 194 201 199 222 223 139 168 124
352 354 355 358 5 15 15 3 346 331 296 338 356 351 344 4 355 343 328 11 342 343 347 322 314 36 72 46 328 199 183 243 165 174 187 204 203 189 190 219 274 154 122 129
349 350 352 354 0 7 353 338 346 324 317 335 339 349 348 343 3 351 352 6 10 329 325 315 272 294 319 266 165 151 227 227 194 156 184 191 211 191 177 120 33 120 132 139
344 345 347 349 353 357 2 343 348 340 307 316 343 343 355 341 360 346 16 6 343 320 330 321 273 328 307 190 165 146 77 360 93 170 182 185 212 173 188 139 129 160 130 133
337 341 342 344 346 352 350 336 322 330 315 343 331 326 356 340 350 345 352 1 1 355 91 6 312 262 252 132 123 131 339 257 251 170 167 171 185 171 191 161 141 151 133 142
333 336 338 338 338 346 350 332 317 322 299 291 325 323 336 336 346 341 343 341 357 7 347 178 252 24 328 95 128 155 250 199 161 107 95 151 348 162 197 206 129 131 133 138
329 329 330 332 332 335 344 333 307 312 295 296 274 313 318 330 335 343 331 335 3 3 10 348 329 321 54 28 56 32 10 312 69 59 48 217 347 301 193 40 133 136 143 153
320 319 323 326 328 326 329 323 296 305 282 278 308 286 288 275 299 331 331 358 11 14 335 342 306 319 87 306 53 13 73 44 66 68 149 228 303 34 32 336 111 132 122 130
312 313 318 322 323 319 317 316 318 319 297 303 300 254 282 304 305 314 316 337 4 359 340 304 296 334 344 13 33 76 35 34 62 268 46 35 19 54 71 96 73 107 120 128
307 311 314 318 317 312 309 307 293 295 298 282 305 331 307 306 319 325 317 327 342 11 21 3 322 339 358 13 32 46 355 313 73 82 93 53 11 17 99 115 137 120 117 126
304 308 310 313 310 309 310 300 271 258 273 306 301 314 306 291 320 309 310 299 21 30 30 15 8 335 346 338 49 33 344 332 335 59 63 80 17 43 115 116 117 119 123 127
297 301 301 304 305 311 327 320 212 225 259 312 305 330 293 283 326 299 304 55 34 80 76 22 350 348 337 51 59 356 353 3 81 93 86 80 56 62 87 100 113 115 119 121
297 292 296 299 295 291 250 275 185 177 275 273 289 280 236 308 313 247 279 160 82 50 93 65 56 6 21 27 47 3 13 32 79 104 97 61 63 64 81 98 101 108 112 114
295 289 291 290 287 284 282 263 233 239 258 245 264 263 294 348 327 308 247 300 110 36 88 71 58 35 29 53 356 67 58 51 62 73 90 99 95 99 92 101 104 100 97 107
286 293 294 288 260 245 206 230 227 242 238 286 247 273 306 276 321 327 346 268 81 150 82 49 75 25 38 9 51 59 69 75 72 86 96 96 94 99 109 109 103 104 104 111
309 320 278 239 169 220 299 258 195 200 222 232 264 278 270 330 342 325 354 273 107 129 95 103 58 64 348 48 129 104 97 88 86 68 83 96 92 89 92 96 105 107 108 119
264 243 238 307 297 270 234 229 202 191 221 218 234 238 322 313 329 324 267 269 272 156 157 122 127 115 94 79 60 74 129 96 89 92 96 88 88 92 94 93 84 93 126 126
218 273 281 282 224 223 236 237 225 220 242 211 269 69 308 314 338 264 291 240 281 109 153 139 131 142 150 142 120 107 109 106 108 112 111 103 101 96 99 101 111 116 103 96
265 273 248 214 231 169 223 214 252 206 241 181 153 19 324 287 276 268 280 293 254 148 201 104 111 153 152 142 132 127 126 120 114 111 110 112 112 115 115 111 98 101 102 97
234 229 242 233 209 226 222 243 6 258 308 281 98 330 34 284 277 250 259 255 216 226 176 108 143 156 154 148 145 139 122 118 115 107 105 106 107 98 92 86 81 110 116 204
243 249 242 227 250 259 252 266 241 177 291 324 26 300 241 269 257 265 289 275 239 27 86 133 147 152 152 151 146 142 138 127 114 102 98 95 100 101 87 72 76 87 154 276
236 234 262 262 277 265 272 236 262 309 56 305 296 301 249 224 238 248 243 340 27 71 125 135 145 152 152 146 145 144 138 131 119 105 97 94 95 119 100 82 68 9 13 57
225 244 242 253 267 280 289 278 245 239 213 199 218 245 232 291 231 201 33 79 108 122 132 147 153 155 152 150 147 145 141 132 120 107 97 91 96 133 124 94 105 73 90 105